TimeCST,TemperatureF,Dew PointF,Humidity,Sea Level PressureIn,VisibilityMPH,Wind Direction,Wind SpeedMPH,Gust SpeedMPH,PrecipitationIn,Events,Conditions,WindDirDegrees,DateUTC
12:58 AM,68.5,59.9,74,29.95,6.2,NNW,12.7,-,N/A,,Overcast,330,2013-03-06 06:58:00
1:58 AM,66.6,59.9,79,29.94,6.2,NNW,16.1,-,N/A,,Scattered Clouds,330,2013-03-06 07:58:00
2:58 AM,66.2,59.9,80,29.95,6.2,NNW,15.0,-,N/A,,Overcast,330,2013-03-06 08:58:00
3:58 AM,66.9,59.9,78,29.97,6.2,NW,11.5,-,N/A,,Overcast,320,2013-03-06 09:58:00
4:58 AM,66.0,59.9,81,29.99,6.2,NNW,10.4,-,N/A,,Overcast,330,2013-03-06 10:58:00
5:58 AM,65.5,61.0,85,30.02,6.2,NNW,12.7,-,N/A,,Overcast,330,2013-03-06 11:58:00
6:00 AM,66,57,66,,11,NNW,6.9,,,,Haze,340,2013-03-06 12:00:00
6:13 AM,66.2,60.8,83,30.12,6.2,NNW,11.5,-,N/A,,Overcast,330,2013-03-06 12:13:00
6:58 AM,66.6,61.7,84,30.06,6.2,North,12.7,-,N/A,,Overcast,350,2013-03-06 12:58:00
7:13 AM,68.0,60.8,78,30.15,6.2,North,11.5,-,N/A,,Overcast,350,2013-03-06 13:13:00
7:28 AM,68.0,60.8,78,30.16,6.2,North,11.5,-,N/A,,Overcast,360,2013-03-06 13:28:00
7:33 AM,68.0,60.8,78,30.16,6.2,North,13.8,-,N/A,,Overcast,360,2013-03-06 13:33:00
7:58 AM,68.5,61.2,77,30.07,6.2,North,16.1,-,N/A,,Overcast,360,2013-03-06 13:58:00
8:38 AM,69.8,60.8,73,30.17,6.2,North,16.1,-,N/A,,Overcast,10,2013-03-06 14:38:00
8:58 AM,71.8,61.3,70,30.08,6.2,NNW,17.3,20.7,N/A,,Overcast,340,2013-03-06 14:58:00
9:00 AM,74,57,44,,11,NNW,6.9,,,,Haze,340,2013-03-06 15:00:00
9:58 AM,75.9,61.0,60,30.08,6.2,North,20.7,26.5,N/A,,Overcast,350,2013-03-06 15:58:00
10:58 AM,78.6,60.3,53,30.05,6.2,North,19.6,-,N/A,,Partly Cloudy,360,2013-03-06 16:58:00
11:58 AM,81.1,59.7,48,30.00,6.2,NNW,23.0,32.2,N/A,,Partly Cloudy,340,2013-03-06 17:58:00
12:00 PM,81,53,27,,11,North,13.8,,,,Haze,0,2013-03-06 18:00:00
12:58 PM,81.9,59.2,46,29.97,6.2,NNW,23.0,34.5,N/A,,Mostly Cloudy,340,2013-03-06 18:58:00
1:58 PM,83.8,57.7,41,29.95,6.2,NNW,25.3,32.2,N/A,,Partly Cloudy,340,2013-03-06 19:58:00
2:58 PM,83.7,57.4,41,29.94,6.2,NNW,26.5,31.1,N/A,,Scattered Clouds,340,2013-03-06 20:58:00
3:00 PM,81,51,25,,11,North,13.8,,,,Haze,0,2013-03-06 21:00:00
3:58 PM,81.7,57.2,43,29.95,6.2,North,23.0,31.1,N/A,,Partly Cloudy,10,2013-03-06 21:58:00
4:58 PM,79.5,57.9,47,29.97,6.2,North,19.6,28.8,N/A,,Partly Cloudy,350,2013-03-06 22:58:00
5:58 PM,75.6,59.7,58,29.99,6.2,North,25.3,31.1,N/A,,Mostly Cloudy,350,2013-03-06 23:58:00
6:00 PM,73,53,40,,11,North,13.8,,,,Haze,0,2013-03-07 00:00:00
6:58 PM,73.2,60.4,64,30.03,6.2,North,23.0,-,N/A,,Mostly Cloudy,360,2013-03-07 00:58:00
7:58 PM,72.0,61.0,68,30.06,6.2,North,21.9,29.9,N/A,,Overcast,360,2013-03-07 01:58:00
11:58 PM,67.6,59.4,75,30.05,6.2,North,13.8,-,N/A,,Clear,360,2013-03-07 05:58:00